Simultaneous Nadir Overpasses (SNOs) Predictions

Prediction of SNOs between GOES-17 and AQUA Satellite Orbit:

Table of predicted SNOs for the next 14.0 days since TLE Epoch: 10/16/2023
Index Date Time (GOES-17) GOES-17 Lat,Lon AQUA Lat,Lon Distance(km) Time Diff (sec)
1 10/17/2023 08:49:07 -0.00,-104.71 -0.20,-103.81 102.69 80
2 10/17/2023 21:09:51 0.00,-104.68 -0.87,-108.83 471.74 80
3 10/19/2023 20:55:03 0.00,-104.67 -0.12,-105.21 62.04 80
4 10/21/2023 20:42:55 0.02,-104.66 0.69,-101.61 347.63 80
5 10/22/2023 09:03:29 -0.02,-104.69 0.41,-106.58 215.94 80
6 10/24/2023 08:46:00 -0.02,-104.68 -0.42,-102.97 194.62 80
7 10/24/2023 21:06:43 0.02,-104.64 -0.66,-107.99 379.82 80
8 10/26/2023 20:54:31 0.02,-104.64 0.06,-104.35 32.06 80
9 10/28/2023 20:39:39 0.02,-104.63 0.84,-100.72 444.21 80
10 10/29/2023 09:00:12 -0.03,-104.67 0.20,-105.71 118.47 80
